Zurück zum Katalog

KUIPER-00259

AktivKommunikationLEO
NORAD 67786·PAYLOAD·🇺🇸 United States

Gestartet Feb 12, 2026 von Guiana Space Centre

Loading…

Nächste Überflüge (nächste 24 Stunden)

TLE

AktuellSource: CelesTrak SupGP

Epoche: Sep 14, 2026, 21:15 UTC

1 67786C 26030Y   26257.88587963  .00005004  00000+0  65521-3 0  2578
2 67786  51.8972  81.4792 0000723 112.2684 243.7990 14.79916891    15

Verfolge KUIPER-00259 in Echtzeit mit AllMySat

Download on the App Store